FW4407 Weather Reports


Display with metric or nautical units.
time (UTC)temp
F
wind
direction
speed
MPH
gust
MPH
rain 1hr
in
rain 24hr
in
rain mn
in
humidity
%
barometer
mb
20260505152517 79 307 1.0 5.0 0.00 0.00 0.00 32 1014.1
20260505151522 79 216 0.0 2.0 0.00 0.00 0.00 31 1014.1
20260505150527 79 246 1.0 5.0 0.00 0.00 0.00 31 1014.2
20260505140523 78 227 2.0 8.0 0.00 0.00 0.00 29 1014.3
20260505124549 79 240 3.0 10.0 0.00 0.00 0.00 29 1014.9
20260505123517 78 242 1.0 8.0 0.00 0.00 0.00 29 1015.0
20260505122522 77 235 2.0 10.0 0.00 0.00 0.00 30 1015.0
20260505121527 77 239 1.0 8.0 0.00 0.00 0.00 31 1015.0
20260505120515 77 236 2.0 8.0 0.00 0.00 0.00 32 1015.2
20260505115520 77 228 3.0 8.0 0.00 0.00 0.00 32 1015.3
20260505114525 77 223 4.0 10.0 0.00 0.00 0.00 33 1015.3
20260505113530 78 193 4.0 13.0 0.00 0.00 0.00 34 1015.4
20260505112518 78 231 4.0 13.0 0.00 0.00 0.00 36 1015.2
20260505111523 78 220 2.0 8.0 0.00 0.00 0.00 38 1015.4
20260505110528 78 239 2.0 10.0 0.00 0.00 0.00 33 1015.4
20260505101519 77 261 2.0 8.0 0.00 0.00 0.00 34 1015.6
20260505100524 76 246 3.0 10.0 0.00 0.00 0.00 34 1015.6
20260505095528 76 245 1.0 10.0 0.00 0.00 0.00 34 1015.7
20260505094517 76 253 1.0 5.0 0.00 0.00 0.00 35 1015.7
20260505093542 76 274 1.0 8.0 0.00 0.00 0.00 35 1015.8
20260505092527 76 274 1.0 5.0 0.00 0.00 0.00 35 1015.8
20260505091532 75 201 2.0 8.0 0.00 0.00 0.00 35 1015.9
20260505090519 74 248 1.0 8.0 0.00 0.00 0.00 35 1015.9
20260505085525 74 267 1.0 5.0 0.00 0.00 0.00 36 1016.0
20260505084529 73 249 2.0 5.0 0.00 0.00 0.00 37 1016.1
20260505083538 73 227 2.0 8.0 0.00 0.00 0.00 37 1016.2
20260505082523 73 234 2.0 8.0 0.00 0.00 0.00 37 1016.2
20260505081528 72 246 1.0 5.0 0.00 0.00 0.00 37 1016.2
20260505080516 72 214 1.0 5.0 0.00 0.00 0.00 39 1016.3
20260505075521 72 240 1.0 8.0 0.00 0.00 0.00 39 1016.3
20260505074526 72 223 1.0 5.0 0.00 0.00 0.00 39 1016.3
20260505073531 71 71 0.0 2.0 0.00 0.00 0.00 39 1016.3
20260505072519 71 0.0 0.0 0.00 0.00 0.00 40 1016.4
20260505071524 70 0.0 0.0 0.00 0.00 0.00 40 1016.3
20260505070528 69 0.0 0.0 0.00 0.00 0.00 42 1016.4
20260505065537 69 0.0 0.0 0.00 0.00 0.00 42 1016.2
20260505064522 68 0.0 0.0 0.00 0.00 0.00 42 1016.3
20260505063527 68 0.0 0.0 0.00 0.00 0.00 43 1016.3
20260505062532 68 0.0 0.0 0.00 0.00 0.00 45 1016.2
20260505061520 67 0.0 0.0 0.00 0.00 0.00 44 1016.2
20260505060525 65 0.0 0.0 0.00 0.00 0.00 44 1016.2
20260505055529 63 0.0 0.0 0.00 0.00 0.00 49 1016.1
20260505054517 61 0.0 0.0 0.00 0.00 0.00 54 1016.1
20260505053543 59 0.0 0.0 0.00 0.00 0.00 56 1016.1
20260505052528 59 0.0 0.0 0.00 0.00 0.00 60 1016.1
20260505051516 58 0.0 0.0 0.00 0.00 0.00 63 1015.9
20260505050541 57 0.0 0.0 0.00 0.00 0.00 63 1015.9
20260505041528 51 0.0 0.0 0.00 0.00 0.00 72 1015.6
20260505040517 50 0.0 0.0 0.00 0.00 0.00 75 1015.4
20260505035522 50 0.0 0.0 0.00 0.00 0.00 76 1015.5
20260505034526 50 0.0 0.0 0.00 0.00 0.00 76 1015.5
20260505033531 50 0.0 0.0 0.00 0.00 0.00 76 1015.4
20260505032520 49 0.0 0.0 0.00 0.00 0.00 76 1015.4
20260505031525 49 0.0 0.0 0.00 0.00 0.00 76 1015.5
20260505030549 49 0.0 0.0 0.00 0.00 0.00 77 1015.4
20260505025518 49 0.0 0.0 0.00 0.00 0.00 76 1015.4
20260505024522 49 0.0 0.0 0.00 0.00 0.00 76 1015.5
20260505023527 50 0.0 0.0 0.00 0.00 0.00 75 1015.5
20260505022515 49 0.0 0.0 0.00 0.00 0.00 74 1015.5
20260505021521 49 0.0 0.0 0.00 0.00 0.00 74 1015.5
20260505020546 49 0.0 0.0 0.00 0.00 0.00 75 1015.7
20260505015530 50 0.0 0.0 0.00 0.00 0.00 75 1015.6
20260505014518 50 0.0 0.0 0.00 0.00 0.00 74 1015.8
20260505013523 50 346 0.0 2.0 0.00 0.00 0.00 74 1015.8
20260505012548 50 29 0.0 2.0 0.00 0.00 0.00 74 1015.8
20260505011516 50 0.0 0.0 0.00 0.00 0.00 74 1015.8
20260505010521 51 0.0 0.0 0.00 0.00 0.00 74 1015.8
20260505005526 51 0.0 0.0 0.00 0.00 0.00 73 1016.0
20260505004532 51 0.0 0.0 0.00 0.00 0.00 74 1016.0
20260505003520 51 0.0 0.0 0.00 0.00 0.00 73 1016.0
20260505002544 51 0.0 0.0 0.00 0.00 0.00 72 1016.1
20260505001550 51 0.0 0.0 0.00 0.00 0.00 72 1016.3
20260505000517 51 0.0 0.0 0.00 0.00 0.00 72 1016.3
20260504235522 51 0.0 0.0 0.00 0.00 0.00 71 1016.4
20260504234527 51 0.0 0.0 0.00 0.00 0.00 71 1016.4
20260504233515 51 0.0 0.0 0.00 0.00 0.00 70 1016.4
20260504232520 52 0.0 0.0 0.00 0.00 0.00 69 1016.4
20260504231525 52 0.0 0.0 0.00 0.00 0.00 68 1016.5
20260504230531 52 0.0 0.0 0.00 0.00 0.00 68 1016.7
20260504225518 52 0.0 0.0 0.00 0.00 0.00 67 1016.7
20260504224523 52 0.0 0.0 0.00 0.00 0.00 66 1016.8
20260504223548 52 0.0 0.0 0.00 0.00 0.00 66 1016.8
20260504222516 53 0.0 0.0 0.00 0.00 0.00 66 1017.1
20260504221521 53 0.0 0.0 0.00 0.00 0.00 65 1016.9
20260504220526 53 0.0 0.0 0.00 0.00 0.00 64 1017.0
20260504215527 54 0.0 0.0 0.00 0.00 0.00 64 1017.1
20260504214515 54 0.0 0.0 0.00 0.00 0.00 63 1017.1
20260504213521 54 0.0 0.0 0.00 0.00 0.00 62 1017.1
20260504212525 54 0.0 0.0 0.00 0.00 0.00 63 1017.1
20260504211530 55 0.0 0.0 0.00 0.00 0.00 62 1017.0
20260504210539 55 0.0 0.0 0.00 0.00 0.00 61 1017.1
20260504205523 55 360 0.0 2.0 0.00 0.00 0.00 62 1017.1
20260504204548 55 0.0 0.0 0.00 0.00 0.00 63 1017.1
20260504203516 56 0.0 0.0 0.00 0.00 0.00 65 1017.1
20260504202521 56 0.0 0.0 0.00 0.00 0.00 66 1017.2
20260504201526 56 0.0 0.0 0.00 0.00 0.00 66 1017.2
20260504200531 56 0.0 0.0 0.00 0.00 0.00 65 1017.3
20260504195519 56 0.0 0.0 0.00 0.00 0.00 65 1017.2
20260504194524 57 0.0 0.0 0.00 0.00 0.00 65 1017.4
20260504193529 57 0.0 0.0 0.00 0.00 0.00 64 1017.2
20260504192517 57 0.0 0.0 0.00 0.00 0.00 64 1017.2
20260504191522 57 0.0 0.0 0.00 0.00 0.00 63 1017.2
20260504190527 57 0.0 0.0 0.00 0.00 0.00 63 1017.2
20260504185532 58 0.0 0.0 0.00 0.00 0.00 62 1017.2
20260504184520 58 243 0.0 2.0 0.00 0.00 0.00 61 1016.8
20260504183545 58 0.0 0.0 0.00 0.00 0.00 61 1017.0
20260504182530 58 0.0 0.0 0.00 0.00 0.00 61 1016.9
20260504181538 59 0.0 0.0 0.00 0.00 0.00 60 1016.7
20260504180523 59 0.0 0.0 0.00 0.00 0.00 61 1016.7
20260504175528 60 0.0 0.0 0.00 0.00 0.00 60 1016.5
20260504174516 60 0.0 0.0 0.00 0.00 0.00 58 1016.6
20260504173521 62 0.0 0.0 0.00 0.00 0.00 56 1016.6
20260504172526 63 274 0.0 2.0 0.00 0.00 0.00 54 1016.5
20260504171531 64 0.0 0.0 0.00 0.00 0.00 39 1016.4
20260504170519 64 3 3.0 8.0 0.00 0.00 0.00 33 1016.4